This is the latest recevied weather packets stored in our database for station/object W7TTE. If no packets are shown the sender has not sent any weather packets the latest 10 day(s).
| Time | Temp. | Humidity | Pressure | Rain* | Wind** | Luminosity | Snow |
|---|---|---|---|---|---|---|---|
| 1777319091 | 25.56° C | 22% | 1015.3 hPa | 0 mm | - | 784 W/m² | - |
| 1777318788 | 25° C | 22% | 1015.4 hPa | 0 mm | - | 784 W/m² | - |
| 1777318484 | 25.56° C | 22% | 1015.5 hPa | 0 mm | - | 784 W/m² | - |
| 1777318181 | 25.56° C | 22% | 1015.5 hPa | 0 mm | - | 785 W/m² | - |
| 1777317878 | 25.56° C | 21% | 1015.6 hPa | 0 mm | - | 785 W/m² | - |
| 1777317575 | 24.44° C | 22% | 1015.7 hPa | 0 mm | - | 784 W/m² | - |
| 1777317273 | 25° C | 23% | 1015.7 hPa | 0 mm | - | 784 W/m² | - |
| 1777316967 | 25° C | 23% | 1015.7 hPa | 0 mm | - | 784 W/m² | - |
| 1777316666 | 24.44° C | 23% | 1015.8 hPa | 0 mm | - | 784 W/m² | - |
| 1777316361 | 25° C | 23% | 1015.9 hPa | 0 mm | - | 784 W/m² | - |
| 1777316060 | 25.56° C | 24% | 1015.9 hPa | 0 mm | - | 782 W/m² | - |
| 1777315758 | 25° C | 24% | 1016.1 hPa | 0 mm | - | 775 W/m² | - |
| 1777315455 | 24.44° C | 24% | 1016.3 hPa | 0 mm | - | 773 W/m² | - |
| 1777315153 | 24.44° C | 24% | 1016.2 hPa | 0 mm | - | 769 W/m² | - |
| 1777314849 | 23.89° C | 25% | 1016.5 hPa | 0 mm | - | 765 W/m² | - |
| 1777314545 | 24.44° C | 24% | 1016.5 hPa | 0 mm | - | 757 W/m² | - |
| 1777314241 | 24.44° C | 25% | 1016.8 hPa | 0 mm | - | 754 W/m² | - |
| 1777313939 | 23.89° C | 26% | 1016.6 hPa | 0 mm | - | 747 W/m² | - |
| 1777313636 | 23.89° C | 25% | 1016.5 hPa | 0 mm | - | 742 W/m² | - |
| 1777313335 | 23.89° C | 25% | 1016.6 hPa | 0 mm | - | 736 W/m² | - |
| 1777313030 | 23.33° C | 26% | 1016.7 hPa | 0 mm | - | 730 W/m² | - |
| 1777312727 | 23.33° C | 26% | 1016.8 hPa | 0 mm | - | 722 W/m² | - |
| 1777312423 | 22.78° C | 26% | 1016.7 hPa | 0 mm | - | 715 W/m² | - |
| 1777312121 | 23.33° C | 26% | 1017 hPa | 0 mm | - | 706 W/m² | - |
| 1777311819 | 23.33° C | 26% | 1016.7 hPa | 0 mm | - | 697 W/m² | - |
* Rain latest hour (hover to see other rain measurements)
** Current wind speed in m/s (hover to see current wind gust speed)